Regional Weather Roundup
Issued by NWS

Home | Current Version | Previous Version | Graphics & Text | Print | Product List | Glossary On
Versions: 1 2 3 4 5 6 7 8 9 10 11 12 13 14 15 16 17 18 19 20 21 22 23 24 25 26 27 28 29 30 31 32 33 34 35 36 37 38 39 40 41 42 43 44 45 46 47 48 49 50
000
ASUS43 KMKX 062021
RWRWI

WISCONSIN REGIONAL WEATHER ROUNDUP
NATIONAL WEATHER SERVICE MILWAUKEE/SULLIVAN WI
200 PM CST FRI MAR 06 2015

NOTE: "FAIR" INDICATES FEW OR NO CLOUDS BELOW 12,000 FEET WITH NO
SIGNIFICANT WEATHER AND/OR OBSTRUCTIONS TO VISIBILITY.

WIZ001-002-006>008-014>016-023>028-062100-
NORTHWEST WISCONSIN

CITY           SKY/WX    TMP DP  RH WIND       PRES   REMARKS
SUPERIOR ARPT  SUNNY     33  14  46 W13       29.98F WCI  23
ASHLAND        SUNNY     33  12  41 W13       29.96F WCI  24
HAYWARD        SUNNY     30  10  43 W8        29.97F WCI  22
SIREN          SUNNY     32  13  46 W10       30.01S WCI  23
CUMBERLAND     SUNNY     28  12  50 W9        29.99S WCI  20
RICE LAKE      SUNNY     29  13  52 W9        30.02S WCI  21
CHETEK         SUNNY     30  13  50 W9        30.01F WCI  21
LADYSMITH      SUNNY     28  11  48 SW7       29.99F WCI  21
EAU CLAIRE     SUNNY     30  14  51 SW12      30.02F WCI  20
MENOMONIE      SUNNY     32  15  48 W7        30.03S WCI  26
NEW RICHMOND   SUNNY     33  16  48 W10       30.02S WCI  25
OSCEOLA        SUNNY     34  17  49 NW12      30.05F WCI  26
$$

WIZ003>005-009-010-017-018-062100-
NORTH CENTRAL WISCONSIN

CITY           SKY/WX    TMP DP  RH WIND       PRES   REMARKS
MANITOWISH WTR SUNNY     26   8  48 W13       29.90F WCI  15
ARBOR VITAE    SUNNY     28   9  46 W8        29.91S WCI  19
WOODRUFF       SUNNY     28   9  46 W8        29.91S WCI  19
RHINELANDER    SUNNY     24   9  52 SW14G20   29.92F WCI  12
EAGLE RIVER    SUNNY     26   6  42 SW13      29.89F WCI  15
LAND O LAKES   SUNNY     30   7  38 W9        29.89S WCI  21
PHILLIPS       SUNNY     25  10  52 SW7       29.93F WCI  17
TOMAHAWK       SUNNY     27   8  45 SW6       29.94F WCI  20
MEDFORD        SUNNY     25  11  54 SW7       29.96F WCI  17
MERRILL        SUNNY     27  11  50 SW13G18   29.97F WCI  16
$$

WIZ029-030-035-036-043>047-062100-
CENTRAL WISCONSIN

CITY           SKY/WX    TMP DP  RH WIND       PRES   REMARKS
WAUSAU         SUNNY     26  11  52 SW13      29.97F WCI  15
MOSINEE        SUNNY     25  12  58 SW10      30.00F WCI  15
MARSHFIELD     SUNNY     29  12  49 SW12      29.99F WCI  19
STEVENS POINT  PTSUNNY   27  10  49 SW12      30.01F WCI  17
WAUPACA        PTSUNNY   33  11  40 S10       30.03F WCI  25
WAUTOMA        CLOUDY    31  14  49 SW14G20   30.06  WCI  21
WISC RAPIDS    CLOUDY    29  12  49 SW15      30.03F WCI  18
CAMP DOUGLAS   MOSUNNY   32  16  51 SW10      30.04  WCI  24
$$

WIZ011>013-019>022-031-037>040-048>050-062100-
NORTHEAST WISCONSIN

CITY           SKY/WX    TMP DP  RH WIND       PRES   REMARKS
ANTIGO         SUNNY     24  11  57 SW14      29.95F WCI  11
SHAWANO        MOSUNNY   32  11  41 SW12G20   30.02F WCI  23
OCONTO         CLOUDY    28  11  49 SW15G22   30.03F WCI  16
STURGEON BAY   CLOUDY    25  10  54 SW21G28   30.04F WCI  10
GREEN BAY      CLOUDY    26  13  57 SW15G22   30.04F WCI  14
MANITOWOC      CLOUDY    30  14  51 SW21      30.07  WCI  17
APPLETON       MOSUNNY   28  12  50 SW18      30.04F WCI  16
CLINTONVILLE   CLOUDY    30  12  47 SW14G20   30.01F WCI  20
OSHKOSH        CLOUDY    27  13  55 S17       30.06F WCI  14
$$

WIZ032>034-041-042-053>061-062100-
SOUTHWEST WISCONSIN

CITY           SKY/WX    TMP DP  RH WIND       PRES   REMARKS
LA CROSSE      SUNNY     32  18  56 S14       30.06F WCI  22
SPARTA         SUNNY     32  15  47 SW6G17    30.06F WCI  27
VIROQUA        MOSUNNY   29  16  58 SW14G20   30.06F WCI  18
BOSCOBEL       SUNNY     30  15  53 S13       30.13F WCI  20
PRAIRIE DU CHI SUNNY     31  17  54 SW8       30.13F WCI  24
PLATTEVILLE    SUNNY     28  17  64 S14       30.14F WCI  17
$$

WIZ056-057-062-063-064-067-068-062100-
SOUTH CENTRAL WISCONSIN

CITY           SKY/WX    TMP DP  RH WIND       PRES   REMARKS
REEDSBURG      PTSUNNY   29  14  54 SW12      30.08F WCI  19
BARABOO/DELLS  CLOUDY    26  12  55 SW13G18   30.07F WCI  15
LONE ROCK      CLOUDY    28  14  55 SW12      30.12  WCI  18
MINERAL POINT  SUNNY     30  16  55 S14       30.12S WCI  20
MADISON        PTSUNNY   26  11  52 SW14G22   30.12F WCI  14
MIDDLETON      PTSUNNY   31  11  43 SW15      30.12S WCI  20
WATERTOWN      MOSUNNY   27  13  56 SW18G25   30.11F WCI  14
MONROE         SUNNY     27  16  63 S17       30.13F WCI  14
JANESVILLE     SUNNY     27  12  54 S17G23    30.16  WCI  14
$$

WIZ051-052-058>065-066-070>072-062100-
SOUTHEAST WISCONSIN

CITY           SKY/WX    TMP DP  RH WIND       PRES   REMARKS
MILWAUKEE      PTSUNNY   28   9  44 SW22G32   30.15F WCI  14
WAUKESHA       MOSUNNY   25  10  54 SW14G25   30.15F WCI  13
MILWAUKEE/TIMM PTSUNNY   27   7  43 S20       30.14F WCI  13
RACINE         CLOUDY    28  10  46 S18G25    30.18F WCI  15
BURLINGTON     PTSUNNY   24  12  59 S18G24    30.17F WCI  10
KENOSHA        CLOUDY    27  11  51 SW18G25   30.17F WCI  14
FOND DU LAC    CLOUDY    27  11  51 SW18G25   30.08F WCI  14
SHEBOYGAN      CLOUDY    27  13  55 SW23      30.09F WCI  12
WEST BEND      CLOUDY    27  10  50 SW20G26   30.10F WCI  13
JUNEAU         FAIR      26  13  56 SW20      30.12F WCI  13
$$

LSZ147-162-062100-
LAKE SUPERIOR

STATION/POSITION TIME  TEMP    WIND        PRES    WAVE
                       AIR SEA DIR/SP/G            HT/PER
                 (UTC) (F)     (DEG/KT/KT) (MB)    (FT/S)
DEVILS ISLAND    2000   27     240/ 22/ 25 1014.3F
PORT WING        1900   28     250/ 15/ 18 1015.2F
SAXON HARBOR     1800   26     220/  9/ 15 1015.2F
$$

LMZ867-665-643>646-062100-
LAKE MICHIGAN

STATION/POSITION TIME  TEMP    WIND        PRES    WAVE
                       AIR SEA DIR/SP/G            HT/PER
                 (UTC) (F)     (DEG/KT/KT) (MB)    (FT/S)
NORTHPORT PIER   1903   27     210/  8/ 20 1016.9F
SISTER BAY       1943   26     220/ 19/ 24   N/A
KEWAUNEE LAKESHO 1900   28     220/ 18/ 27 1018.1F
SHEBOYGAN LAKESH 2000   29     210/ 20/ 23 1020.3F
PORT WASHINGTON  1914   31     210/ 14/ 25 1021.0F
MILWAUKEE LAKESH 2000   27     230/ 24/ 30   N/A
KENOSHA   LAKESH 2000   28     200/ 16/ 24 1021.7F
$$

TC  - TEMPERATURE IN CELSIUS
VSB - VISIBILITY IN STATUTE MILES
WCI - WIND CHILL INDEX
HX  - HEAT INDEX



USA.gov is the U.S. government's official web portal to all federal, state and local government web resources and services.